Weather in Sivashskoe

Ukraine / Kherson District     46°22′50″N   34°32′51″E
temp.,
°C
wind,
m/s
gust,
m/s
humid.,
%
clouds,
%
prec.,
mm/h
press.,
hPa
HPBL,
m
18 april, sun
sun1800:00+7sse2273100 0.0 102024
03:00+7ene337599 0.0 101955
06:00+6ene337483 0.0 101952
09:00+10e44495 0.0 1018517
12:00+14e444386 0.0 10181341
15:00+15ese435014 0.0 10161559
18:00+13se55685 0.0 1016601
21:00+8se358889 0.0 1018124
19 april, mon
mon1900:00+9sse1282100 0.0 1018127
03:00+9ese2282100 0.1 101748
06:00+9ne247957 0.0 1016122
09:00+11e3467100 0.0 1016334
12:00+15e345156 0.0 10151093
15:00+17ese434884 0.0 10141608
18:00+14se4458100 0.0 1014562
21:00+10ese3677100 0.0 1013221
20 april, tue
tue2000:00+10e51183100 0.0 1009421
03:00+9ne61295100 4.4 1007514
06:00+9ene61296100 5.6 1003525
09:00+10ese5997100 7.4 1001411
12:00+13sw8118181 0.7 1000994
15:00+12sw91277100 0.9 10001212
18:00+11sw5679100 0.2 999756
21:00+9nw81285100 0.4 10031022
21 april, wed
wed2100:00+9w71288100 0.1 1008670
03:00+9wsw61082100 0.1 1011434
06:00+7w4987100 0.0 1014259
09:00+11w5768100 0.0 1016598
12:00+14w5751100 0.0 10171503
15:00+15wsw5649100 0.1 10171657
18:00+14sw565740 0.2 10181135
21:00+10sw357481 0.2 1020104
22 april, thu
thu2200:00+8sw3381100 0.0 102042
03:00+8ssw338496 0.0 102140
06:00+8sw339299 0.0 102160
09:00+12sw3473100 0.1 1021426
12:00+16ssw455430 1.2 10211633
15:00+16ssw555125 2.5 10201726
18:00+14s456392 0.6 1021772
21:00+11ssw33775 0.6 102156